1397433634730,1.07746
1397433694730,1.06614
1397433754730,1.06354
1397433814730,1.06985
1397433874730,1.06870
1397433934730,1.07458
1397433994730,1.07346
1397434054730,1.05764
1397434114730,1.06025
1397434174730,1.06267
1397434234730,1.05601
1397434294730,1.05685
1397434354730,1.04562
1397434414730,1.04441
1397434474730,1.04810
1397434534730,1.03396
1397434594730,1.03659
1397434654730,1.03468
1397434714730,1.02923
1397434774730,1.02752
1397434834730,1.01853
1397434894730,1.02209
1397434954730,1.02021
1397435014730,1.00915
1397435074730,1.01299
1397435134730,1.00578
1397435194730,1.01392
1397435254730,1.01371
1397435314730,1.01574
1397435374730,0.996118
1397435434730,1.00524
1397435494730,0.999426
1397435554730,1.00340
1397435614730,1.00622
1397435674730,1.00874
1397435734730,1.00404
1397435794730,0.997423
1397435854730,1.00538
1397435914730,1.00239
1397435974730,0.999625
1397436034730,1.00767
1397436094730,1.00630
1397436154730,0.997862
1397436214730,0.998996
1397436274730,0.998586
1397436334730,1.00341
1397436394730,0.999694
1397436454730,0.996118
1397436514730,0.994938
1397436574730,0.995341
1397436634730,1.00189
1397436694730,0.993068
1397436754730,0.995700
1397436814730,0.993888
1397436874730,0.989774
1397436934730,0.994398
1397436994730,0.997985
1397437054730,0.991443
1397437114730,0.991545
1397437174730,0.993607
1397437234741,0.997341
1397437294741,0.999271
1397437354741,1.00100
1397437414741,0.990635
1397437474741,0.994102
1397437534741,0.993287
1397437594741,0.999269
1397437654741,1.00015
1397437714741,0.997721
1397437774741,0.993694
1397437834741,0.997971
1397437894741,0.999658
1397437954741,0.985497
1397438014741,0.993162
1397438074741,1.00009
1397438134741,0.994022
1397438194741,0.993085
1397438254741,0.999263
1397438314741,0.990404
1397438374741,0.995053
1397438434741,0.998656
1397438494741,0.989492
1397438554741,0.992382
1397438614741,0.989676
1397438674741,0.986243
1397438734741,0.998259
1397438794741,1.00489
1397438854741,1.00048
1397438914741,1.00213
1397438974741,0.989172
1397439034741,0.991743
1397439094741,0.996905
1397439154741,0.995805
1397439214741,0.987568
1397439274741,0.993911
1397439334741,0.987238
1397439394741,0.985164
1397439454741,0.998942
1397439514741,0.999672
1397439574741,0.993446
1397439634741,0.991615
1397439694741,0.995648
1397439754741,0.988467
1397439814741,0.992257
1397439874741,0.996074
1397439934741,0.993025
1397439994741,0.986096
1397440054741,0.990597
1397440114741,1.00423
1397440174741,0.990342
1397440234741,0.990163
1397440294741,0.986695
1397440354741,0.995875
1397440414741,0.992756
1397440474741,0.994894
1397440534741,0.995520
1397440594741,1.00338
1397440654741,1.00099
1397440714741,1.01001
1397440774741,1.00337
1397440834752,0.994273
1397440894752,0.998133
1397440954752,1.00596
1397441014752,1.00279
1397441074752,1.00389
1397441134752,1.00881
1397441194752,1.00646
1397441254752,1.00917
1397441314752,1.02272
1397441374752,1.02174
1397441434752,1.03096
1397441494752,1.04361
1397441554752,1.03346
1397441614752,1.03903
1397441674752,1.02807
1397441734752,1.02659
1397441794752,1.02845
1397441854752,1.03077
1397441914752,1.03624
1397441974752,1.02565
1397442034752,1.02625
1397442094752,1.02338
1397442154752,1.02368
1397442214752,1.02330
1397442274752,1.02032
1397442334752,1.01753
1397442394752,1.01757
1397442454752,1.02243
1397442514752,1.01695
1397442574752,1.01552
1397442634752,1.02017
1397442694752,1.01951
1397442754752,1.01898
1397442814752,1.02152
1397442874752,1.02185
1397442934752,1.01015
1397442994752,1.01487
1397443054752,1.01942
1397443114752,1.01570
1397443174752,1.02470
1397443234752,1.01064
1397443294752,1.01729
1397443354752,1.00826
1397443414752,1.00602
1397443474752,1.00936
1397443534752,1.00684
1397443594752,1.01847
1397443654752,1.01320
1397443714752,1.00972
1397443774752,1.01523
1397443834752,1.00990
1397443894752,1.00765
1397443954752,1.01562
1397444014752,1.00848
1397444074752,1.00638
1397444134752,1.00834
1397444194752,1.00527
1397444254752,1.00832
1397444314752,1.00531
1397444374752,1.00965
1397444434763,1.01193
1397444494763,1.00296
1397444554763,1.00106
1397444614763,1.00470
1397444674763,1.00196
1397444734763,1.01071
1397444794763,1.02089
1397444854763,1.01367
1397444914763,1.01326
1397444974763,1.01584
1397445034763,1.02928
1397445094763,1.01903
1397445154763,1.02408
1397445214763,1.01261
1397445274763,1.01518
1397445334763,1.02083
1397445394763,1.01753
1397445454763,1.02877
1397445514763,1.01338
1397445574763,1.01327
1397445634763,1.01482
1397445694763,1.01813
1397445754763,1.00733
1397445814763,1.00783
1397445874763,1.01403
1397445934763,1.00734
1397445994763,1.01115
1397446054763,1.01361
1397446114763,1.00587
1397446174763,1.01309
1397446234763,1.00413
1397446294763,1.00463
1397446354763,1.00736
1397446414763,0.997540
1397446474763,1.00219
1397446534763,1.00549
1397446594763,1.00486
1397446654763,0.996249
1397446714763,0.997651
1397446774763,0.996585
1397446834763,1.00237
1397446894763,1.00238
1397446954763,0.991941
1397447014763,1.00300
1397447074763,0.993675
1397447134763,0.996161
1397447194763,0.990727
1397447254763,0.995951
1397447314763,1.00004
1397447374763,0.994926
1397447434763,0.999296
1397447494763,1.00706
1397447554763,1.00818
1397447614763,0.996125
1397447674763,0.998845
1397447734763,1.00565
1397447794763,1.00288
1397447854763,1.00081
1397447914763,1.00022
1397447974763,0.999011
1397448034773,1.00297
1397448094773,0.993880
1397448154773,1.00658
1397448214773,1.00031
1397448274773,1.00830
1397448334773,1.01048
1397448394773,1.01303
1397448454773,1.01151
1397448514773,1.01227
1397448574773,1.02155
1397448634773,1.00458
1397448694773,1.01377
1397448754773,1.01493
1397448814773,1.00999
1397448874773,1.00478
1397448934773,1.00633
1397448994773,1.00833
1397449054773,0.998029
1397449114773,1.01125
1397449174773,1.00523
1397449234773,1.01090
1397449294773,1.01640
1397449354773,1.01354
1397449414773,1.01825
1397449474773,1.04300
1397449534773,1.05934
1397449594773,1.06574
1397449654773,1.07378
1397449714773,1.07985
1397449774773,1.08553
1397449834773,1.10167
1397449894773,1.09898
1397449954773,1.09693
1397450014773,1.11525
1397450074773,1.11762
1397450134773,1.11775
1397450194773,1.15548
1397450254773,1.19430
1397450314773,1.22301
1397450374773,1.22562
1397450434773,1.19962
1397450494773,1.19213
1397450554773,1.18108
1397450614773,1.18557
1397450674773,1.19024
1397450734773,1.18511
1397450794773,1.18878
1397450854773,1.18284
1397450914773,1.19089
1397450974773,1.19093
1397451034773,1.18777
1397451094773,1.18808
1397451154773,1.18048
1397451214773,1.17924
1397451274773,1.16767
1397451334773,1.16857
1397451394773,1.17041
1397451454773,1.16781
1397451514773,1.16871
1397451574773,1.15961
1397451634784,1.15967
1397451694784,1.14267
1397451754784,1.13975
1397451814784,1.13793
1397451874784,1.14087
1397451934784,1.12859
1397451994784,1.12892
1397452054784,1.12347
1397452114784,1.12690
1397452174784,1.11753
1397452234784,1.09855
1397452294784,1.10205
1397452354784,1.11014
1397452414784,1.10077
1397452474784,1.09758
1397452534784,1.09036
1397452594784,1.08636
1397452654784,1.09010
1397452714784,1.08198
1397452774784,1.07556
1397452834784,1.07523
1397452894784,1.07416
1397452954784,1.07769
1397453014784,1.06909
1397453074784,1.08387
1397453134784,1.06698
1397453194784,1.06560
1397453254784,1.07431
1397453314784,1.05805
1397453374784,1.06676
1397453434784,1.06277
1397453494784,1.06703
1397453554784,1.06478
1397453614784,1.05888
1397453674784,1.07368
1397453734784,1.07048
1397453794784,1.06643
1397453854784,1.06482
1397453914784,1.07154
1397453974784,1.06885
1397454034784,1.07274
1397454094784,1.07333
1397454154784,1.06546
1397454214784,1.06909
1397454274784,1.07233
1397454334784,1.07003
1397454394784,1.06020
1397454454784,1.05647
1397454514784,1.06241
1397454574784,1.05637
1397454634784,1.06121
1397454694784,1.05792
1397454754784,1.05353
1397454814784,1.04559
1397454874784,1.05452
1397454934784,1.04439
1397454994784,1.04527
1397455054784,1.04577
1397455114784,1.04321
1397455174784,1.05094
1397455234794,1.04173
1397455294794,1.03354
1397455354794,1.03017
1397455414794,1.03425
1397455474794,1.03507
1397455534794,1.03412
1397455594794,1.03481
1397455654794,1.04183
1397455714794,1.03493
1397455774794,1.02485
1397455834794,1.03244
1397455894794,1.02508
1397455954794,1.04021
1397456014794,1.02872
1397456074794,1.02466
1397456134794,1.03631
1397456194794,1.02586
1397456254794,1.02451
1397456314794,1.02794
1397456374794,1.02172
1397456434794,1.01859
1397456494794,1.02504
1397456554794,1.02270
1397456614794,1.01823
1397456674794,1.01853
1397456734794,1.02066
1397456794794,1.00998
1397456854794,1.01228
1397456914794,1.01510
1397456974794,1.01381
1397457034794,1.01533
1397457094794,1.00851
1397457154794,1.00542
1397457214794,1.02053
1397457274794,1.01633
1397457334794,1.01668
1397457394794,1.02111
1397457454794,1.02312
1397457514794,1.01752
1397457574794,1.02096
1397457634794,1.02510
1397457694794,1.02204
1397457754794,1.02860
1397457814794,1.03643
1397457874794,1.01980
1397457934794,1.02031
1397457994794,1.01867
1397458054794,1.02156
1397458114794,1.01828
1397458174794,1.02502
1397458234794,1.02667
1397458294794,1.02728
1397458354794,1.02113
1397458414794,1.02874
1397458474794,1.02707
1397458534794,1.02740
1397458594794,1.02442
1397458654794,1.02775
1397458714794,1.03218
1397458774794,1.02804
1397458834804,1.01589
1397458894804,1.03740
1397458954804,1.03534
1397459014804,1.02863
1397459074804,1.04436
1397459134804,1.04209
1397459194804,1.04861
1397459254805,1.04837
1397459314804,1.05307
1397459374804,1.04583
1397459434804,1.05014
1397459494804,1.06065
1397459554805,1.06282
1397459614805,1.06314
1397459674805,1.06540
1397459734805,1.07495
1397459794805,1.07172
1397459854805,1.06228
1397459914805,1.05942
1397459974805,1.05093
1397460034804,1.05047
1397460094804,1.04552
1397460154804,1.04631
1397460214804,1.03793
1397460274804,1.04100
1397460334804,1.04026
1397460394804,1.03342
1397460454804,1.03749
1397460514804,1.03587
1397460574805,1.03552
1397460634805,1.03513
1397460694804,1.02835
1397460754804,1.03021
1397460814804,1.02838
1397460874804,1.02481
1397460934805,1.02556
1397460994805,1.02641
1397461054805,1.02280
1397461114805,1.03561
1397461174805,1.02677
1397461234805,1.03711
1397461294805,1.04392
1397461354804,1.03166
1397461414804,1.03675
1397461474804,1.04494
1397461534804,1.04593
1397461594804,1.04447
1397461654804,1.05098
1397461714804,1.04707
1397461774804,1.05308
1397461834804,1.05060
1397461894804,1.06289
1397461954805,1.05520
1397462014804,1.07345
1397462074804,1.07450
1397462134804,1.09064
1397462194804,1.10810
1397462254805,1.12290
1397462314805,1.14041
1397462374805,1.14615
1397462434815,1.16383
1397462494815,1.15353
1397462554815,1.16349
1397462614815,1.17127
1397462674815,1.17356
1397462734815,1.17358
1397462794815,1.16654
1397462854815,1.16090
1397462914815,1.16886
1397462974815,1.16627
1397463034815,1.17002
1397463094815,1.15713
1397463154815,1.16101
1397463214815,1.16089
1397463274815,1.15864
1397463334815,1.16171
1397463394815,1.16684
1397463454815,1.16554
1397463514815,1.16542
1397463574815,1.14964
1397463634815,1.15226
1397463694815,1.14803
1397463754815,1.13669
1397463814815,1.13319
1397463874815,1.12981
1397463934815,1.11599
1397463994815,1.11291
1397464054815,1.10501
1397464114815,1.09975
1397464174815,1.08739
1397464234815,1.08604
1397464294815,1.08573
1397464354815,1.08259
1397464414815,1.07249
1397464474815,1.06106
1397464534815,1.06420
1397464594815,1.05735
1397464654815,1.05466
1397464714815,1.04666
1397464774815,1.05273
1397464834815,1.04770
1397464894815,1.03431
1397464954815,1.03640
1397465014815,1.04331
1397465074815,1.03349
1397465134815,1.02285
1397465194815,1.03282
1397465254815,1.03985
1397465314815,1.03269
1397465374815,1.03514
1397465434815,1.02895
1397465494815,1.03095
1397465554815,1.02048
1397465614815,1.03268
1397465674815,1.03900
1397465734815,1.02800
1397465794815,1.03796
1397465854815,1.03840
1397465914815,1.05003
1397465974815,1.04622
1397466034825,1.04390
1397466094825,1.04756
1397466154825,1.05014
1397466214825,1.03857
1397466274825,1.04268
1397466334825,1.03547
1397466394825,1.04369
1397466454825,1.03870
1397466514825,1.04476
1397466574825,1.05149
1397466634825,1.06091
1397466694825,1.08120
1397466754825,1.07889
1397466814825,1.08000
1397466874825,1.07526
1397466934825,1.07865
1397466994825,1.07782
1397467054825,1.07748
1397467114825,1.06842
1397467174825,1.06246
1397467234825,1.06564
1397467294825,1.06973
1397467354825,1.06056
1397467414825,1.05948
1397467474825,1.06041
1397467534825,1.04689
1397467594825,1.05794
1397467654825,1.05680
1397467714825,1.06427
1397467774825,1.05543
1397467834825,1.05309
1397467894825,1.05604
1397467954825,1.05104
1397468014825,1.04266
1397468074825,1.04949
1397468134825,1.04852
1397468194825,1.04039
1397468254825,1.03878
1397468314825,1.03239
1397468374825,1.03872
1397468434825,1.04043
1397468494825,1.03346
1397468554825,1.03395
1397468614825,1.01979
1397468674825,1.02525
1397468734825,1.02998
1397468794825,1.02450
1397468854825,1.02813
1397468914825,1.01892
1397468974825,1.02366
1397469034825,1.02052
1397469094825,1.02044
1397469154825,1.01839
1397469214825,1.01842
1397469274825,1.01218
1397469334825,1.01698
1397469394825,1.01254
1397469454825,1.01277
1397469514825,1.01079
1397469574825,1.01037
1397469634835,1.01478
1397469694835,1.01070
1397469754835,1.00789
1397469814835,1.00201
1397469874835,1.00584
1397469934835,1.00920
1397469994835,1.01359
1397470054835,1.00949
1397470114835,1.00192
1397470174835,1.00427
1397470234835,1.00740
1397470294835,1.00293
1397470354835,0.997151
1397470414835,1.00198
1397470474835,0.996642
1397470534835,1.01010
1397470594835,0.998250
1397470654835,0.999452
1397470714835,0.999136
1397470774835,0.997618
1397470834835,0.995283
1397470894835,1.00089
1397470954835,1.00176
1397471014835,0.995640
1397471074835,0.994653
1397471134835,0.999893
1397471194835,0.999876
1397471254835,0.993138
1397471314835,0.991629
1397471374835,0.994874
1397471434835,0.993582
1397471494835,0.996818
1397471554835,0.995771
1397471614835,0.986183
1397471674835,0.988993
1397471734835,0.995198
1397471794835,0.995882
1397471854835,0.995225
1397471914835,0.990462
1397471974835,0.992182
1397472034835,0.988547
1397472094835,0.991734
1397472154835,0.994914
1397472214835,0.986679
1397472274835,0.994688
1397472334835,0.999629
1397472394835,0.999284
1397472454835,0.997473
1397472514835,1.01189
1397472574835,0.999452
1397472634835,1.00291
1397472694835,1.00288
1397472754835,1.00854
1397472814835,1.01801
1397472874835,1.01541
1397472934835,1.01636
1397472994835,1.02573
1397473054835,1.02093
1397473114835,1.02532
1397473174835,1.01885
1397473234846,1.02983
1397473294846,1.02899
1397473354846,1.02687
1397473414846,1.01708
1397473474846,1.02924
1397473534846,1.02454
1397473594846,1.02105
1397473654846,1.02316
1397473714846,1.01026
1397473774846,1.01407
1397473834846,1.01249
1397473894846,1.01087
1397473954846,1.00696
1397474014846,1.00173
1397474074846,1.00056
1397474134845,1.00298
1397474194846,1.00512
1397474254846,0.999454
1397474314846,1.00168
1397474374846,0.989270
1397474434846,1.01140
1397474494846,0.998291
1397474554846,1.00131
1397474614846,1.00041
1397474674846,1.00484
1397474734846,0.995506
1397474794846,0.997380
1397474854846,0.997269
1397474914846,0.992042
1397474974846,0.995853
1397475034846,0.995102
1397475094846,0.996202
1397475154846,0.993271
1397475214846,0.996426
1397475274846,0.997630
1397475334846,0.994757
1397475394846,0.983391
1397475454846,0.995173
1397475514846,0.985308
1397475574846,0.991900
1397475634846,0.984649
1397475694846,0.988398
1397475754846,0.997403
1397475814846,0.987347
1397475874846,0.992524
1397475934846,0.986084
1397475994846,0.989084
1397476054846,0.982735
1397476114846,0.992627
1397476174846,0.995457
1397476234846,0.991749
1397476294846,0.993906
1397476354846,0.993820
1397476414846,1.00148
1397476474846,0.988740
1397476534846,0.984855
1397476594846,0.984973
1397476654846,0.990911
1397476714846,0.993630
1397476774846,0.990164
1397476834856,0.991377
1397476894856,0.987441
1397476954856,0.991749
1397477014856,0.996949
1397477074856,0.993702
1397477134856,0.996804
1397477194856,0.990494
1397477254856,1.00530
1397477314856,0.988318
1397477374856,0.992801
1397477434856,1.00498
1397477494856,1.00002
1397477554856,1.00295
1397477614856,1.00238
1397477674856,0.999458
1397477734856,1.00003
1397477794856,1.00801
1397477854856,1.00506
1397477914856,1.01031
1397477974856,1.00770
1397478034856,1.01947
1397478094856,1.02980
1397478154856,1.02964
1397478214856,1.03720
1397478274856,1.03642
1397478334856,1.04105
1397478394856,1.04219
1397478454856,1.05600
1397478514856,1.06339
1397478574856,1.08619
1397478634856,1.09140
1397478694856,1.09485
1397478754856,1.07801
1397478814856,1.06875
1397478874856,1.05995
1397478934856,1.05162
1397478994856,1.04814
1397479054856,1.04290
1397479114856,1.03106
1397479174856,1.02671
1397479234856,1.02897
1397479294856,1.02558
1397479354856,1.02593
1397479414856,1.02893
1397479474856,1.01918
1397479534856,1.01413
1397479594856,1.01783
1397479654856,1.01371
1397479714856,1.01547
1397479774856,1.02621
1397479834856,1.02621
1397479894856,1.02667
1397479954856,1.02333
1397480014856,1.02476
1397480074856,1.04604
1397480134856,1.03942
1397480194856,1.03224
1397480254856,1.03349
1397480314856,1.03656
1397480374856,1.02897
1397480434866,1.02965
1397480494866,1.02525
1397480554866,1.02220
1397480614866,1.02771
1397480674866,1.02400
1397480734866,1.00809
1397480794866,1.02108
1397480854866,1.01546
1397480914866,1.02171
1397480974866,1.01695
1397481034866,1.03282
1397481094866,1.02490
1397481634866,1.02695
1397481694866,1.03367
1397481754866,1.02778
1397481814866,1.03591
1397481874866,1.03304
1397481934866,1.03533
1397481994866,1.03706
1397482054866,1.03685
1397482114866,1.03392
1397482174866,1.03695
1397482234866,1.03236
1397482294866,1.02440
1397482354866,1.02595
1397482414866,1.01941
1397482474866,1.02923
1397482534866,1.02172
1397482594866,1.02156
1397482654866,1.03236
1397482714866,1.03053
1397482774866,1.02866
1397482834866,1.02242
1397482894866,1.02146
1397482954866,1.00916
1397483014866,1.01916
1397483074866,1.02738
1397483134866,1.02273
1397483194866,1.01929
1397483254866,1.01980
1397483314866,1.01391
1397483374866,1.01665
1397483434866,1.02172
1397483494866,1.01598
1397483554866,1.01574
1397483614866,1.01854
1397483674866,1.01535
1397483734866,1.01321
1397483794866,1.00849
1397483854866,1.00844
1397483914866,1.00493
1397483974866,1.01896
1397484034876,1.00732
1397484094876,1.00829
1397484154876,1.01941
1397484214876,1.01610
1397484274876,1.01713
1397484334876,1.00890
1397484394876,1.00750
1397484454876,1.00187
1397484514876,1.01138
1397484574876,1.00304
1397484634876,1.01177
1397484694876,1.00786
1397484754876,1.00997
1397484814876,1.00786
1397484874876,1.01322
1397484934876,1.01295
1397484994876,1.00850
1397485054876,1.02552
1397485114876,1.00669
1397485174876,1.00146
1397485234876,1.02860
1397485294876,1.01776
1397485354876,1.01042
1397485414876,1.01306
1397485474876,1.01653
1397485534876,1.00469
1397485594876,1.00605
1397485654876,1.00459
1397485714876,1.01028
1397485774876,1.01420
1397485834876,0.998743
1397485894876,1.01163
1397485954876,0.998837
1397486014876,1.01029
1397486074876,1.01436
1397486134876,0.997144
1397486194876,1.01427
1397486254876,1.00850
1397486314876,0.999270
1397486374876,0.999991
1397486434876,1.00151
1397486494876,1.00574
1397486554876,0.999402
1397486614876,1.00376
1397486674876,0.995835
1397486734876,1.00379
1397486794876,1.00252
1397486854876,1.00835
1397486914876,1.00055
1397486974876,1.00045
1397487034876,1.00594
1397487094876,1.00575
1397487154876,1.00283
1397487214876,1.00795
1397487274876,1.00539
1397487334876,0.998916
1397487394876,1.00635
1397487454876,1.00616
1397487514876,1.01758
1397487574876,1.01509
1397487634886,1.01669
1397487694886,1.01696
1397487754886,1.01514
1397487814886,1.01423
1397487874886,1.01207
1397487934886,1.00518
1397487994886,1.01093
1397488054886,0.997721
1397488114886,1.00552
1397488174886,1.00102
1397488234886,1.00621
1397488294886,1.00047
1397488354886,1.00587
1397488414886,0.999946
1397488474886,1.01221
1397488534886,1.00462
1397488594886,1.00847
1397488654886,1.00723
1397488714886,1.01515
1397488774886,1.01690
1397488834886,1.00211
1397488894886,1.00759
1397488954886,1.01047
1397489014886,0.998419
1397489074886,1.01205
1397489134886,1.01431
1397489194886,1.01649
1397489254886,1.01336
1397489314886,1.01348
1397489374886,1.02156
1397489434886,1.00631
1397489494886,1.02175
1397489554886,1.01751
1397489614886,1.02226
1397489674886,1.02806
1397489734886,1.03160
1397489794886,1.04096
1397489854886,1.03338
1397489914886,1.04201
1397489974886,1.04606
1397490034886,1.04618
1397490094886,1.05804
1397490154886,1.05228
1397490214886,1.06106
1397490274886,1.06070
1397490334886,1.07476
1397490394886,1.07109
1397490454886,1.05982
1397490514886,1.05359
1397490574886,1.06042
1397490634886,1.05617
1397490694886,1.05083
1397490754886,1.04416
1397490814886,1.05389
1397490874886,1.04043
1397490934886,1.04298
1397490994886,1.03771
1397491054886,1.04232
1397491114886,1.04973
1397491174886,1.03928
1397491234895,1.03479
1397491294895,1.03867
1397491354895,1.04154
1397491414895,1.04286
1397491474895,1.04354
1397491534895,1.04346
1397491594895,1.03055
1397491654895,1.03832
1397491714895,1.03573
1397491774895,1.03444
1397491834895,1.03673
1397491894895,1.02976
1397491954895,1.02074
1397492014895,1.02447
1397492074895,1.03220
1397492134896,1.02401
1397492194896,1.02636
1397492254896,1.02327
1397492314896,1.02647
1397492374896,1.02409
1397492434896,1.03055
1397492494896,1.02887
1397492554895,1.02645
1397492614895,1.02361
1397492674895,1.02117
1397492734895,1.02954
1397492794895,1.02076
1397492854895,1.02192
1397492914895,1.02038
1397492974895,1.02593
1397493034895,1.02566
1397493094895,1.01740
1397493154896,1.02463
1397493214895,1.01851
1397493274895,1.01834
1397493334895,1.02561
1397493394895,1.02942
1397493454895,1.02247
1397493514896,1.02177
1397493574896,1.01716
1397493634896,1.01790
1397493694896,1.01783
1397493754896,1.02101
1397493814896,1.01848
1397493874895,1.02745
1397493934895,1.02434
1397493994895,1.03558
1397494054895,1.02112
1397494114895,1.03559
1397494174895,1.03327
1397494234895,1.02474
1397494294895,1.02131
1397494354895,1.01963
1397494414895,1.02725
1397494474895,1.01853
1397494534895,1.02691
1397494594895,1.01807
1397494654895,1.01498
1397494714895,1.01716
1397494774895,1.01771
1397494834905,1.01806
1397494894905,1.02111
1397494954905,1.01445
1397495014905,1.01931
1397495074905,1.01740
1397495134905,1.02213
1397495194905,1.01775
1397495254905,1.02220
1397495314905,1.03264
1397495374905,1.03684
1397495434905,1.03895
1397495494905,1.03741
1397495554905,1.04326
1397495614905,1.04780
1397495674905,1.04661
1397495734905,1.03742
1397495794905,1.04440
1397495854905,1.03727
1397495914905,1.04015
1397495974905,1.03593
1397496034905,1.04835
1397496094905,1.05218
1397496154905,1.04799
1397496214905,1.03693
1397496274905,1.03796
1397496334905,1.04012
1397496394905,1.03150
1397496454905,1.03398
1397496514905,1.03807
1397496574905,1.03864
1397496634905,1.03041
1397496694905,1.03105
1397496754905,1.02669
1397496814905,1.03358
1397496874905,1.03247
1397496934905,1.03927
1397496994905,1.03522
1397497054905,1.02848
1397497114905,1.03126
1397497174905,1.03920
1397497234905,1.03472
1397497294905,1.02689
1397497354905,1.03269
1397497414905,1.03952
1397497474905,1.03866
1397497534905,1.02756
1397497594905,1.03257
1397497654905,1.03119
1397497714905,1.03412
1397497774905,1.04409
1397497834905,1.03344
1397497894905,1.03759
1397497954905,1.02628
1397498014905,1.03245
1397498074905,1.03017
1397498134905,1.03391
1397498194905,1.02903
1397498254905,1.04267
1397498314905,1.04412
1397498374905,1.04693
1397498434915,1.04652
1397498494915,1.04995
1397498554915,1.05878
1397498614915,1.05541
1397498674915,1.04032
1397498734915,1.04242
1397498794915,1.04151
1397498854915,1.03810
1397498914915,1.03626
1397498974915,1.03884